Location: Unspecified
(0.0000°N, 0.0000°E)
Time: 05:24:59
(UTC+00:00)

Hubble Space Telescope - Visible Passes

Search period start: 24 April 2017 00:00
Search period end: 04 May 2017 00:00
Orbit: 538 x 542 km, 28.5° (Epoch: 22 April)

Date Brightness Start Highest point End Pass type
(mag) Time Alt. Az. Time Alt. Az. Time Alt. Az.
25 Apr 3.5 20:07:04 10° NNW 20:07:41 13° NNW 20:07:41 13° NNW visible
26 Apr 2.9 19:56:43 10° NW 19:58:23 21° NNW 19:58:23 21° NNW visible
27 Apr 2.1 19:46:30 10° NW 19:49:07 35° NNW 19:49:07 35° NNW visible
28 Apr 1.1 19:36:22 10° WNW 19:39:53 62° NW 19:39:53 62° NW visible
29 Apr 0.7 19:26:21 10° WNW 19:30:29 70° SSW 19:30:40 68° S visible
30 Apr 1.4 19:16:26 10° WNW 19:20:27 47° SSW 19:21:28 38° SSE visible
01 May 2.3 05:30:38 10° SSW 05:34:17 30° SSE 05:37:56 10° E visible
01 May 2.0 19:06:40 10° W 19:10:25 33° SSW 19:12:15 22° SSE visible
02 May 1.7 05:20:19 10° SW 05:24:16 42° SSE 05:28:11 10° ENE visible
02 May 2.6 18:57:01 10° W 19:00:24 24° SSW 19:03:02 14° SSE visible
03 May 1.1 05:10:40 13° SW 05:14:14 62° SSE 05:18:19 10° ENE visible
03 May 3.0 18:47:35 10° WSW 18:50:24 17° SSW 18:53:13 10° SSE visible
